East Haven, CT

8:31 AM EST on February 19, 2017 (GMT -0500)
Tweed-New Haven

Weather History for KHVN - February, 2014

Change the Weather History Date:

Saturday, February 15, 2014

  Actual Average Record
Temperature  
Mean Temperature 30 °F -  
Max Temperature 37 °F 37 °F 43 °F (2017)
Min Temperature 23 °F 24 °F 1 °F (2016)
Degree Days  
Heating Degree Days 35    
Moisture  
Dew Point 25 °F    
Average Humidity 79    
Maximum Humidity 93    
Minimum Humidity 54    
Precipitation  
Precipitation 0.00 in - - ()
Sea Level Pressure  
Sea Level Pressure 29.65 in    
Wind  
Wind Speed 9 mph (North)    
Max Wind Speed 24 mph    
Max Gust Speed 33 mph    
Visibility 6 miles    
Events Fog , Snow    
Averages and records for this station are not official NWS values.
T = Trace of Precipitation, MM = Missing Value Source: NWS Daily Summary

Daily Weather History Graph

Daily Weather History Graph

Search for Another Location

Airport or City:

Trip Planner

Search our weather history database for the weather conditions in past years. The results will help you decide how hot, cold, wet, or windy it might be!

Date:

Astronomy

Feb. 15, 2014 Rise Set
Actual Time 6:46 AM EST 5:25 PM EST
Civil Twilight 6:18 AM EST 5:53 PM EST
Nautical Twilight 5:45 AM EST 6:26 PM EST
Astronomical Twilight 5:13 AM EST 6:58 PM EST
Moon 6:24 PM EST (2/15) 6:42 AM EST (2/15)
Length of Visible Light 11h 35m
Length of Day
10h 39m
Full, 100% of the Moon is Illuminated
Feb 15
Full
Feb 22
Last Quarter
Mar 1
New
Mar 8
First Quarter
Mar 16
Full

Hourly Weather History & Observations

Time (EST) Temp. Windchill Dew Point Humidity Pressure Visibility Wind Dir Wind Speed Gust Speed Precip Events Conditions
12:53 AM 34.0 °F - 21.9 °F 61% 29.79 in 10.0 mi Calm Calm - N/A   Clear
1:53 AM 26.1 °F - 19.9 °F 78% 29.78 in 10.0 mi Calm Calm - N/A   Scattered Clouds
2:53 AM 27.0 °F - 21.0 °F 78% 29.79 in 10.0 mi Calm Calm - N/A   Clear
3:53 AM 23.0 °F - 19.0 °F 85% 29.80 in 9.0 mi Calm Calm - N/A   Clear
4:53 AM 24.1 °F 19.7 °F 21.0 °F 88% 29.79 in 7.0 mi NNE 3.5 mph - N/A   Overcast
5:53 AM 23.0 °F - 19.0 °F 85% 29.79 in 8.0 mi Calm Calm - N/A   Mostly Cloudy
6:53 AM 26.1 °F - 23.0 °F 88% 29.80 in 8.0 mi Calm Calm - N/A   Overcast
7:53 AM 28.9 °F 22.8 °F 24.1 °F 82% 29.79 in 9.0 mi North 5.8 mph - N/A   Overcast
8:53 AM 33.1 °F 28.7 °F 23.0 °F 66% 29.80 in 10.0 mi NE 4.6 mph - N/A   Overcast
9:53 AM 35.1 °F 30.1 °F 23.0 °F 61% 29.79 in 10.0 mi ENE 5.8 mph - N/A   Overcast
10:53 AM 37.0 °F 31.0 °F 21.9 °F 54% 29.76 in 10.0 mi ENE 8.1 mph - N/A   Overcast
11:53 AM 37.0 °F 30.4 °F 21.9 °F 54% 29.72 in 10.0 mi NE 9.2 mph - N/A   Overcast
12:53 PM 37.0 °F 29.8 °F 23.0 °F 57% 29.67 in 10.0 mi NE 10.4 mph - N/A   Overcast
1:21 PM 37.4 °F 29.3 °F 24.8 °F 60% 29.65 in 4.0 mi NNE 12.7 mph 17.3 mph 0.00 in Snow Light Snow
1:53 PM 35.1 °F 24.8 °F 26.1 °F 70% 29.62 in 4.0 mi NNE 17.3 mph 23.0 mph 0.00 in Snow Light Snow
2:53 PM 33.1 °F 22.6 °F 28.0 °F 82% 29.60 in 6.0 mi NNE 16.1 mph 23.0 mph 0.00 in   Haze
3:00 PM 33.8 °F 23.5 °F 26.6 °F 75% 29.60 in 6.0 mi North 16.1 mph - N/A   Haze
3:41 PM 32.0 °F 20.1 °F 28.4 °F 87% 29.59 in 1.8 mi North 19.6 mph 27.6 mph 0.00 in Snow Light Snow
3:53 PM 32.0 °F 19.8 °F 28.0 °F 85% 29.60 in 1.0 mi North 20.7 mph 27.6 mph 0.00 in Snow Light Snow
3:55 PM 32.0 °F 20.5 °F 28.4 °F 87% 29.59 in 0.8 mi North 18.4 mph 27.6 mph 0.00 in Snow Light Snow
4:10 PM 32.0 °F 20.5 °F 28.4 °F 87% 29.59 in 0.5 mi North 18.4 mph - 0.00 in Fog , Snow Snow
4:43 PM 30.2 °F 17.4 °F 28.4 °F 93% 29.55 in 0.5 mi North 20.7 mph 28.8 mph 0.00 in Fog , Snow Snow
4:53 PM 30.9 °F 17.5 °F 28.0 °F 89% 29.56 in 0.5 mi North 24.2 mph 33.4 mph 0.00 in Fog , Snow Snow
5:05 PM 30.2 °F 16.8 °F 28.4 °F 93% 29.56 in 0.8 mi North 23.0 mph 31.1 mph 0.00 in Snow Light Snow
5:15 PM 30.2 °F 17.4 °F 28.4 °F 93% 29.55 in 0.8 mi North 20.7 mph 32.2 mph 0.00 in Snow Light Snow
5:29 PM 30.2 °F 17.4 °F 28.4 °F 93% 29.55 in 1.2 mi North 20.7 mph 31.1 mph 0.00 in Snow Light Snow
5:53 PM 32.0 °F 20.8 °F 28.0 °F 85% 29.57 in 2.0 mi North 17.3 mph 31.1 mph 0.00 in Snow Light Snow
6:25 PM 32.0 °F 20.8 °F 28.4 °F 87% 29.58 in 1.5 mi North 17.3 mph 24.2 mph 0.00 in Snow Light Snow
6:53 PM 32.0 °F 21.2 °F 28.0 °F 85% 29.57 in 1.5 mi NNW 16.1 mph 24.2 mph 0.00 in Snow Light Snow
7:35 PM 32.0 °F 22.1 °F 28.4 °F 87% 29.56 in 2.0 mi NNW 13.8 mph 26.5 mph 0.00 in Snow Light Snow
7:53 PM 32.0 °F 20.5 °F 28.0 °F 85% 29.56 in 2.5 mi North 18.4 mph 33.4 mph 0.00 in Snow Light Snow
8:02 PM 32.0 °F 20.5 °F 28.4 °F 87% 29.56 in 4.0 mi North 18.4 mph 26.5 mph 0.00 in Snow Light Snow
8:34 PM 32.0 °F 22.1 °F 28.4 °F 87% 29.56 in 5.0 mi NNW 13.8 mph 20.7 mph 0.00 in Snow Light Snow
8:53 PM 33.1 °F 25.5 °F 28.0 °F 82% 29.55 in 8.0 mi NNW 9.2 mph 19.6 mph 0.00 in   Overcast
9:53 PM 33.1 °F 23.0 °F 23.0 °F 66% 29.57 in 10.0 mi NNW 15.0 mph 29.9 mph 0.00 in   Mostly Cloudy
10:53 PM 32.0 °F 20.5 °F 21.0 °F 64% 29.59 in 10.0 mi NW 18.4 mph 28.8 mph N/A   Overcast
11:53 PM 30.9 °F 20.7 °F 18.0 °F 59% 29.62 in 10.0 mi NW 13.8 mph 27.6 mph N/A   Overcast